Topeka, KS

5:35 AM CST on November 14, 2019 (GMT -0600)
Billard Municipal

Weather History for KTOP - September, 2019

Change the Weather History Date:

Sunday, September 29, 2019

  Actual Average Record
Temperature  
Mean Temperature 77 °F 63 °F  
Max Temperature 88 °F 75 °F 95 °F (1952)
Min Temperature 66 °F 50 °F 32 °F (1984)
Degree Days  
Heating Degree Days 0 5  
Month to date heating degree days 0 59  
Since 1 July heating degree days 0 61  
Cooling Degree Days 12 3  
Month to date cooling degree days 325 163  
Year to date cooling degree days 1571 1391  
Growing Degree Days 26 (Base 50)    
Moisture  
Dew Point 69 °F    
Average Humidity 76    
Maximum Humidity 93    
Minimum Humidity 59    
Precipitation  
Precipitation T in 0.12 in 2.07 in (1893)
Month to date precipitation 2.50 3.55  
Year to date precipitation 43.39 30.12  
Snow  
Snow 0.00 in 0.00 in 0.00 in ()
Month to date snowfall 0.0 0.0  
Year to date snowfall 18.5 11.3  
Since 1 July snowfall T 0.0  
Snow Depth 0.00 in    
Sea Level Pressure  
Sea Level Pressure 29.92 in    
Wind  
Wind Speed 12 mph (SSE)    
Max Wind Speed 22 mph    
Max Gust Speed 32 mph    
Visibility 9 miles    
Events Thunderstorm    
T = Trace of Precipitation, MM = Missing Value Source: NWS Daily Summary

Daily Weather History Graph

Daily Weather History Graph

Search for Another Location

Airport or City:

Astronomy

Sep. 29, 2019 Rise Set
Actual Time 7:16 AM CDT 7:08 PM CDT
Civil Twilight 6:49 AM CDT 7:35 PM CDT
Nautical Twilight 6:18 AM CDT 8:06 PM CDT
Astronomical Twilight 5:47 AM CDT 8:37 PM CDT
Moon 8:08 AM CDT (9/29) 8:09 PM CDT (9/29)
Length of Visible Light 12h 45m
Length of Day
11h 52m
New Moon, 1% of the Moon is Illuminated
Sep 29
New Moon
Oct 5
First Quarter
Oct 13
Full
Oct 21
Last Quarter
Oct 27
New

Hourly Weather History & Observations

Time (CDT) Temp. Heat Index Dew Point Humidity Pressure Visibility Wind Dir Wind Speed Gust Speed Precip Events Conditions
1:53 AM 66.9 °F - 64.9 °F 93% 29.96 in 7.0 mi East 4.6 mph - N/A   Overcast
2:24 AM 66.9 °F - 64.9 °F 93% 29.96 in 7.0 mi East 4.6 mph - N/A   Overcast
2:31 AM 66.9 °F - 64.9 °F 93% 29.96 in 7.0 mi East 5.8 mph - N/A Thunderstorm Overcast
2:49 AM 66.2 °F - 66.2 °F 100% 29.96 in 7.0 mi ENE 3.5 mph - N/A   Overcast
2:53 AM 66.9 °F - 64.9 °F 93% 29.94 in 7.0 mi ENE 3.5 mph - N/A   Overcast
3:13 AM 66.9 °F - 66.0 °F 97% 29.95 in 6.0 mi Calm Calm - N/A   Mostly Cloudy
3:53 AM 68.0 °F - 66.0 °F 93% 29.93 in 8.0 mi East 5.8 mph - N/A   Mostly Cloudy
4:53 AM 68.0 °F - 66.0 °F 93% 29.92 in 9.0 mi East 5.8 mph - 0.00 in   Partly Cloudy
5:53 AM 71.1 °F - 68.0 °F 90% 29.92 in 10.0 mi SE 8.1 mph - N/A   Overcast
6:53 AM 72.0 °F - 69.1 °F 91% 29.93 in 10.0 mi SSE 8.1 mph - N/A   Partly Cloudy
7:53 AM 73.0 °F - 69.1 °F 87% 29.94 in 10.0 mi SSE 6.9 mph - N/A   Clear
8:53 AM 75.0 °F - 70.0 °F 84% 29.94 in 10.0 mi South 9.2 mph - N/A   Scattered Clouds
9:25 AM 77.0 °F - 71.1 °F 82% 29.96 in 10.0 mi South 16.1 mph 26.5 mph N/A   Mostly Cloudy
9:37 AM 77.0 °F - 71.1 °F 82% 29.96 in 10.0 mi South 16.1 mph 25.3 mph N/A   Mostly Cloudy
9:53 AM 78.1 °F - 71.1 °F 79% 29.94 in 10.0 mi South 11.5 mph 25.3 mph N/A   Mostly Cloudy
10:06 AM 80.1 °F 83.6 °F 71.1 °F 74% 29.96 in 10.0 mi SSW 11.5 mph 23.0 mph N/A   Scattered Clouds
10:53 AM 82.0 °F 86.3 °F 71.1 °F 69% 29.93 in 10.0 mi SSW 15.0 mph 21.9 mph N/A   Partly Cloudy
11:18 AM 82.0 °F 86.7 °F 72.0 °F 71% 29.95 in 10.0 mi SSW 11.5 mph 21.9 mph N/A   Mostly Cloudy
11:53 AM 84.0 °F 89.0 °F 71.1 °F 65% 29.92 in 10.0 mi South 17.3 mph 24.2 mph N/A   Mostly Cloudy
12:53 PM 84.9 °F 90.7 °F 72.0 °F 65% 29.91 in 10.0 mi South 12.7 mph - N/A   Overcast
1:24 PM 84.9 °F 90.7 °F 72.0 °F 65% 29.93 in 10.0 mi South 11.5 mph 24.2 mph N/A   Overcast
1:53 PM 86.0 °F 91.5 °F 71.1 °F 61% 29.90 in 10.0 mi South 13.8 mph 21.9 mph N/A   Overcast
2:53 PM 86.0 °F 91.5 °F 71.1 °F 61% 29.88 in 10.0 mi South 13.8 mph 24.2 mph N/A   Mostly Cloudy
3:53 PM 87.1 °F 92.8 °F 71.1 °F 59% 29.87 in 10.0 mi SSE 20.7 mph 32.2 mph N/A   Partly Cloudy
4:53 PM 84.9 °F 90.1 °F 71.1 °F 63% 29.87 in 10.0 mi South 18.4 mph 31.1 mph N/A   Partly Cloudy
5:53 PM 82.9 °F 88.0 °F 72.0 °F 69% 29.88 in 10.0 mi SSE 17.3 mph 23.0 mph N/A   Overcast
6:53 PM 81.0 °F 84.9 °F 71.1 °F 72% 29.88 in 10.0 mi SSE 16.1 mph 24.2 mph N/A   Partly Cloudy
7:53 PM 80.1 °F 83.8 °F 72.0 °F 76% 29.88 in 10.0 mi SE 15.0 mph - N/A   Mostly Cloudy
8:53 PM 79.0 °F - 71.1 °F 77% 29.90 in 10.0 mi SSE 12.7 mph - N/A   Clear
9:53 PM 78.1 °F - 71.1 °F 79% 29.90 in 10.0 mi SSE 13.8 mph 24.2 mph N/A   Clear
10:53 PM 77.0 °F - 71.1 °F 82% 29.90 in 10.0 mi SSE 13.8 mph - N/A   Clear
11:53 PM 77.0 °F - 70.0 °F 79% 29.90 in 10.0 mi SSE 9.2 mph - N/A   Clear